Notices

What's New in latest Release from April 7th, 2021:

- Updated Glossary, including Speed of Maximum Gust, and Total Hourly Precipitation

- Updated national and regional climate services offices contacts and prices information

- Addition of station inventory lists for 1981-2010, 1971-2000, and 1961-1990 Normals.

If you haven't already, please take our survey and provide feedback about our website: https://eccc.sondage-survey.ca/f/LanguageSelection.aspx?s=442ca660-fcf1-47c0-95a9-59707d6fd709

Hourly Data Report for December 06, 2020

CARBERRY CS
MANITOBA
Current Station Operator: ECCC - MSC

49°54'20.900" N
99°21'26.800" W
383.50 m
5010547
71170
WZE

Download Data

Hourly Data (December 2020)
Hourly Data Report for December 6, 2020
TIME
LST
Temp Definition
°C
Dew Point Definition
°C
Rel Hum Definition
%
Precip. Amount Definition
mm

Wind Dir Definition
10's deg

Wind Spd Definition
km/h
Visibility Definition
km
Stn Press Definition
kPa
Hmdx Definition


Wind Chill Definition


Weather Definition


00:00 -3.1 -5.0 87 0.0 27 11   97.31   -7 LegendNANA
01:00 -1.7 -4.0 84 0.0 25 15   97.27   -7 LegendNANA
02:00 -2.0 -4.2 85 0.0 25 15   97.21   -7 LegendNANA
03:00 -3.3 -5.4 86 0.0 26 13   97.17   -8 LegendNANA
04:00 -2.4 -4.5 85 0.0 25 16   97.14   -8 LegendNANA
05:00 -2.7 -4.7 86 0.0 25 9   97.13   -6 LegendNANA
06:00 -2.8 -4.7 87 0.0 33 5   97.14   -5 LegendNANA
07:00 -3.9 -5.5 88 0.0 26 14   97.14   -9 LegendNANA
08:00 -5.8 -6.8 92 0.0 26 12   97.20   -11 LegendNANA
09:00 -4.8 -6.2 90 0.0 26 11   97.22   -9 LegendNANA
10:00 -2.8 -5.2 83 0.0 26 10   97.27   -7 LegendNANA
11:00 0.9 -3.6 72 0.0 29 4   97.24     LegendNANA
12:00 3.1 -3.2 63 0.0 31 6   97.23     LegendNANA
13:00 4.5 -3.0 58 0.0 31 8   97.20     LegendNANA
14:00 5.4 -2.8 55 0.0 32 7   97.20     LegendNANA
15:00 6.2 -3.1 51 0.0 26 4   97.15     LegendNANA
16:00 5.3 -3.2 54 0.0 36 1   97.13     LegendNANA
17:00 2.4 -3.6 64 0.0 18 6   97.15     LegendNANA
18:00 -1.4 -6.8 67 0.0 24 7   97.13   -4 LegendNANA
19:00 0.3 -3.2 77 0.0 22 7   97.07     LegendNANA
20:00 -1.4 -4.7 78 0.0 21 9   97.02   -5 LegendNANA
21:00 -1.4 -4.0 83 0.0 22 8   96.99   -4 LegendNANA
22:00 -3.1 -5.2 85 0.0 21 14   96.93   -8 LegendNANA
23:00 -3.7 -5.1 90 0.0 21 11   96.85   -8 LegendNANA

Notes on Data Quality.

Legend

  • E = Estimated
  • M = Missing
  • NA = Not Available*
  • [empty] = Indicates an unobserved value
Date modified: